Tracking 29892 objects as of 21-Nov-2024
HD Live streaming from Space Station
objects crossing your sky now

YAOGAN-35 05A

Track YAOGAN-35 05A now!
10-day predictions


NORAD ID: 53760
Int'l Code: 2022-109A
Perigee: 495.2 km
Apogee: 512.5 km
Inclination: 35.0 °
Period: 94.5 minutes
Semi major axis: 6874 km
RCS: Unknown
Launch date: September 6, 2022
Source: People's Republic of China (PRC)
Launch site: Xichang Space Center, China (XSC)
Your satellite tracking list
Your tracking list is empty




NASA's NSSDC Master Catalog

Two Line Element Set (TLE):
1 53760U 22109A   24326.14302862  .00028249  00000-0  11663-2 0  9992
2 53760  35.0040 342.5293 0012580 249.1961 110.7406 15.23026175123198
Source of the keplerian elements: AFSPC